Location: ??????????
(54.4061°N, 22.6114°E)
Time: 05:48:17
(UTC+00:00)

STARLINK-24 - Pass Details

Date: 23 October 2019
Orbit: 550 x 553 km, 53.0° (Epoch: 12 November)

Event Time Altitude Azimuth Distance (km) Brightness Sun altitude
Rises 17:18:23 0° 278° (W) 2,724 8.9 -18.7°
Reaches altitude 10° 17:20:39 10° 275° (W) 1,829 7.5 -19.0°
Maximum altitude 17:24:44 59° 196° (SSW) 642 3.9 -19.6°
Enters shadow 17:25:43 44° 144° (SE) 764 4.0 -19.7°
